Regional Weather Roundup
Issued by NWS

Home | Current Version | Previous Version | Graphics & Text | Print | Product List | Glossary Off
Versions: 1 2 3 4 5 6 7 8 9 10 11 12 13 14 15 16 17 18 19 20 21 22 23 24 25 26 27 28 29 30 31 32 33 34 35 36 37 38 39 40 41 42 43 44 45 46 47 48 49 50

000
ASUS43 KTOP 270159
RWRKS

WEATHER ROUNDUP FOR KANSAS
NATIONAL WEATHER SERVICE GOODLAND KS
900 PM CDT TUE MAY 26 2015

NOTE:  "FAIR" INDICATES FEW OR NO CLOUDS BELOW 12,000 FEET WITH NO
SIGNIFICANT WEATHER AND/OR OBSTRUCTIONS TO VISIBILITY.

KSZ001>006-013>018-027>032-041>047-270300-
NORTHWEST KANSAS

CITY           SKY/WX    TMP DP  RH WIND       PRES   REMARKS
GOODLAND       PTCLDY    61  54  77 S6        30.01S
HAYS           CLEAR     66  52  59 NE8       29.97R
HILL CITY      CLEAR     61  54  77 NE6       29.99R
RUSSELL        CLEAR     64  55  72 N8        29.95R
$$

KSZ061>065-074>080-084>089-270300-
SOUTHWEST KANSAS

CITY           SKY/WX    TMP DP  RH WIND       PRES   REMARKS
DODGE CITY     PTCLDY    71  57  61 NE3       29.97S
ELKHART          N/A     66  52  61 SE8         N/A
GARDEN CITY    PTCLDY    68  54  60 NE10      29.98R
GREAT BEND     CLEAR     66  57  72 N8        29.95R
LIBERAL        CLEAR     72  54  53 E6        30.00S
$$

KSZ066>073-081>083-090>101-270300-
SOUTHEAST KANSAS

CITY           SKY/WX    TMP DP  RH WIND       PRES   REMARKS
CHANUTE        MOCLDY    70  66  87 S9        29.95R
COFFEYVILLE    PTCLDY    70  64  81 S6        29.97R
HUTCHINSON     CLEAR     67  60  78 CALM      29.94R
NEWTON         PTCLDY    72  59  64 SE9       29.97R
PARSONS        MOCLDY    69  66  90 S7        29.98R
WICHITA INTL   MOCLDY    67  62  84 S6        29.96R
WICHITA JABRA  PTCLDY    65  61  87 SE5       29.96R
WINFIELD       CLEAR     70  64  81 SE6       29.98R
$$

KSZ007>012-019>026-033>040-048>060-102>105-270300-
NORTHEAST KANSAS

CITY           SKY/WX    TMP DP  RH WIND       PRES   REMARKS
CONCORDIA      MOCLDY    64  53  67 W7        29.94R
EMPORIA        CLOUDY    66  59  78 SW7       29.93R
LAWRENCE       PTCLDY    71  60  68 W5        29.91R
MANHATTAN      PTCLDY    69  57  65 CALM      29.93R
OLATHE IND     MOCLDY    73  59  61 W6        29.92R
OLATHE EXE     MOCLDY    73  58  59 W7        29.90R
SALINA         PTCLDY    69  57  65 N8        29.95R
TOPEKA BILLARD PTCLDY    72  58  61 SW3       29.91R
TOPEKA FORBES  PTCLDY    69  61  75 W6        29.92R
$$


USA.gov is the U.S. government's official web portal to all federal, state and local government web resources and services.